| time (UTC) | temp F | wind direction | speed MPH | gust MPH | rain 1hr in | rain 24hr in | rain mn in | humidity % | barometer mb |
| 20260509002136 | 70 | 277 | 0.0 | 3.0 | 0.00 | 0.00 | 0.00 | 20 | 1021.6 |
| 20260509001633 | 70 | 259 | 0.0 | 3.0 | 0.00 | 0.00 | 0.00 | 18 | 1021.5 |
| 20260509001131 | 70 | 252 | 0.0 | 4.0 | 0.00 | 0.00 | 0.00 | 19 | 1021.6 |
| 20260509000650 | 70 | 241 | 0.0 | 4.0 | 0.00 | 0.00 | 0.00 | 20 | 1021.6 |
| 20260509000126 | 70 | 262 | 0.0 | 1.0 | 0.00 | 0.00 | 0.00 | 20 | 1021.6 |
| 20260508235625 | 70 | 296 | 0.0 | 4.0 | 0.00 | 0.00 | 0.00 | 21 | 1021.7 |
| 20260508235143 | 70 | 266 | 1.0 | 4.0 | 0.00 | 0.00 | 0.00 | 20 | 1021.7 |
| 20260508234641 | 70 | 253 | 0.0 | 3.0 | 0.00 | 0.00 | 0.00 | 20 | 1021.7 |
| 20260508234117 | 71 | 248 | 1.0 | 3.0 | 0.00 | 0.00 | 0.00 | 19 | 1021.7 |
| 20260508233635 | 71 | 220 | 0.0 | 3.0 | 0.00 | 0.00 | 0.00 | 21 | 1021.7 |
| 20260508233133 | 71 | 243 | 1.0 | 6.0 | 0.00 | 0.00 | 0.00 | 22 | 1021.7 |
| 20260508232631 | 71 | 258 | 1.0 | 6.0 | 0.00 | 0.00 | 0.00 | 21 | 1021.7 |
| 20260508232133 | 72 | 266 | 1.0 | 3.0 | 0.00 | 0.00 | 0.00 | 21 | 1021.7 |
| 20260508231631 | 72 | 259 | 1.0 | 2.0 | 0.00 | 0.00 | 0.00 | 20 | 1021.7 |
| 20260508231129 | 71 | 262 | 1.0 | 4.0 | 0.00 | 0.00 | 0.00 | 20 | 1021.7 |
| 20260508230627 | 71 | 276 | 1.0 | 4.0 | 0.00 | 0.00 | 0.00 | 19 | 1021.9 |
| 20260508230125 | 72 | 258 | 2.0 | 4.0 | 0.00 | 0.00 | 0.00 | 21 | 1021.9 |
| 20260508225624 | 72 | 261 | 1.0 | 4.0 | 0.00 | 0.00 | 0.00 | 20 | 1021.9 |
| 20260508225122 | 72 | 221 | 1.0 | 6.0 | 0.00 | 0.00 | 0.00 | 21 | 1022.0 |
| 20260508224619 | 72 | 259 | 1.0 | 6.0 | 0.00 | 0.00 | 0.00 | 20 | 1021.9 |
| 20260508224136 | 73 | 109 | 1.0 | 4.0 | 0.00 | 0.00 | 0.00 | 20 | 1021.9 |
| 20260508223633 | 73 | 199 | 1.0 | 4.0 | 0.00 | 0.00 | 0.00 | 18 | 1021.9 |
| 20260508222635 | 73 | 310 | 1.0 | 5.0 | 0.00 | 0.00 | 0.00 | 20 | 1022.1 |
| 20260508222134 | 74 | 215 | 2.0 | 5.0 | 0.00 | 0.00 | 0.00 | 20 | 1022.1 |
| 20260508221631 | 74 | 262 | 1.0 | 4.0 | 0.00 | 0.00 | 0.00 | 21 | 1022.1 |
| 20260508221128 | 74 | 92 | 1.0 | 4.0 | 0.00 | 0.00 | 0.00 | 20 | 1022.2 |
| 20260508220627 | 75 | 174 | 1.0 | 4.0 | 0.00 | 0.00 | 0.00 | 20 | 1022.3 |
| 20260508220124 | 75 | 62 | 0.0 | 4.0 | 0.00 | 0.00 | 0.00 | 21 | 1022.4 |
| 20260508215627 | 75 | 239 | 1.0 | 5.0 | 0.00 | 0.00 | 0.00 | 19 | 1022.4 |
| 20260508215124 | 75 | 306 | 2.0 | 5.0 | 0.00 | 0.00 | 0.00 | 19 | 1022.3 |
| 20260508214622 | 75 | 210 | 1.0 | 5.0 | 0.00 | 0.00 | 0.00 | 21 | 1022.4 |
| 20260508214121 | 76 | 186 | 2.0 | 7.0 | 0.00 | 0.00 | 0.00 | 20 | 1022.4 |
| 20260508213618 | 76 | 271 | 2.0 | 7.0 | 0.00 | 0.00 | 0.00 | 18 | 1022.5 |
| 20260508213136 | 76 | 259 | 1.0 | 5.0 | 0.00 | 0.00 | 0.00 | 18 | 1022.6 |
| 20260508212654 | 76 | 243 | 0.0 | 4.0 | 0.00 | 0.00 | 0.00 | 18 | 1022.5 |
| 20260508212131 | 76 | 155 | 0.0 | 4.0 | 0.00 | 0.00 | 0.00 | 18 | 1022.6 |
| 20260508211630 | 76 | 213 | 2.0 | 4.0 | 0.00 | 0.00 | 0.00 | 18 | 1022.6 |
| 20260508211127 | 76 | 270 | 1.0 | 4.0 | 0.00 | 0.00 | 0.00 | 17 | 1022.6 |
| 20260508210626 | 76 | 146 | 1.0 | 4.0 | 0.00 | 0.00 | 0.00 | 18 | 1022.6 |
| 20260508210123 | 76 | 284 | 1.0 | 4.0 | 0.00 | 0.00 | 0.00 | 17 | 1022.7 |
| 20260508205623 | 77 | 243 | 2.0 | 6.0 | 0.00 | 0.00 | 0.00 | 16 | 1022.8 |
| 20260508205121 | 77 | 274 | 2.0 | 6.0 | 0.00 | 0.00 | 0.00 | 16 | 1022.8 |
| 20260508204639 | 77 | 161 | 2.0 | 6.0 | 0.00 | 0.00 | 0.00 | 15 | 1022.9 |
| 20260508204136 | 77 | 51 | 1.0 | 3.0 | 0.00 | 0.00 | 0.00 | 16 | 1022.8 |
| 20260508203618 | 77 | 160 | 1.0 | 3.0 | 0.00 | 0.00 | 0.00 | 15 | 1022.9 |
| 20260508203136 | 77 | 258 | 1.0 | 3.0 | 0.00 | 0.00 | 0.00 | 15 | 1022.9 |
| 20260508202634 | 77 | 205 | 1.0 | 4.0 | 0.00 | 0.00 | 0.00 | 15 | 1023.0 |
| 20260508202131 | 77 | 285 | 1.0 | 4.0 | 0.00 | 0.00 | 0.00 | 16 | 1023.0 |
| 20260508201628 | 76 | 283 | 0.0 | 4.0 | 0.00 | 0.00 | 0.00 | 16 | 1022.9 |
| 20260508201126 | 76 | 275 | 1.0 | 4.0 | 0.00 | 0.00 | 0.00 | 16 | 1023.0 |
| 20260508200623 | 77 | 278 | 1.0 | 4.0 | 0.00 | 0.00 | 0.00 | 15 | 1022.9 |
| 20260508200121 | 78 | 182 | 1.0 | 4.0 | 0.00 | 0.00 | 0.00 | 15 | 1023.0 |
| 20260508195619 | 77 | 223 | 1.0 | 4.0 | 0.00 | 0.00 | 0.00 | 15 | 1023.0 |
| 20260508195157 | 78 | 327 | 0.0 | 3.0 | 0.00 | 0.00 | 0.00 | 15 | 1023.0 |
| 20260508194633 | 78 | 292 | 1.0 | 3.0 | 0.00 | 0.00 | 0.00 | 15 | 1023.1 |
| 20260508194131 | 77 | 301 | 0.0 | 3.0 | 0.00 | 0.00 | 0.00 | 15 | 1023.1 |
| 20260508193629 | 77 | 262 | 1.0 | 5.0 | 0.00 | 0.00 | 0.00 | 16 | 1023.1 |
| 20260508193127 | 77 | 295 | 2.0 | 5.0 | 0.00 | 0.00 | 0.00 | 15 | 1023.2 |
| 20260508192625 | 78 | 218 | 1.0 | 3.0 | 0.00 | 0.00 | 0.00 | 16 | 1023.2 |
| 20260508192143 | 77 | 44 | 1.0 | 3.0 | 0.00 | 0.00 | 0.00 | 17 | 1023.2 |
| 20260508191620 | 77 | 305 | 1.0 | 3.0 | 0.00 | 0.00 | 0.00 | 17 | 1023.2 |
| 20260508191158 | 77 | 214 | 1.0 | 3.0 | 0.00 | 0.00 | 0.00 | 18 | 1023.1 |
| 20260508190619 | 77 | 165 | 1.0 | 4.0 | 0.00 | 0.00 | 0.00 | 17 | 1023.1 |
| 20260508185622 | 76 | 219 | 0.0 | 4.0 | 0.00 | 0.00 | 0.00 | 18 | 1023.1 |
| 20260508185119 | 76 | 255 | 1.0 | 5.0 | 0.00 | 0.00 | 0.00 | 18 | 1023.2 |
| 20260508184657 | 75 | 62 | 2.0 | 5.0 | 0.00 | 0.00 | 0.00 | 18 | 1023.1 |
| 20260508184133 | 75 | 262 | 1.0 | 3.0 | 0.00 | 0.00 | 0.00 | 18 | 1023.1 |
| 20260508183631 | 74 | 123 | 1.0 | 4.0 | 0.00 | 0.00 | 0.00 | 16 | 1023.3 |
| 20260508183129 | 74 | 262 | 1.0 | 4.0 | 0.00 | 0.00 | 0.00 | 17 | 1023.2 |
| 20260508182627 | 73 | 302 | 2.0 | 3.0 | 0.00 | 0.00 | 0.00 | 17 | 1023.2 |
| 20260508182125 | 73 | 64 | 2.0 | 3.0 | 0.00 | 0.00 | 0.00 | 17 | 1023.3 |
| 20260508181622 | 73 | 48 | 2.0 | 5.0 | 0.00 | 0.00 | 0.00 | 18 | 1023.3 |
| 20260508181121 | 73 | 51 | 1.0 | 5.0 | 0.00 | 0.00 | 0.00 | 19 | 1023.2 |
| 20260508180639 | 72 | 45 | 1.0 | 5.0 | 0.00 | 0.00 | 0.00 | 16 | 1023.2 |
| 20260508180157 | 73 | 344 | 2.0 | 4.0 | 0.00 | 0.00 | 0.00 | 16 | 1023.3 |
| 20260508175634 | 72 | 68 | 1.0 | 4.0 | 0.00 | 0.00 | 0.00 | 16 | 1023.2 |
| 20260508175132 | 73 | 39 | 2.0 | 5.0 | 0.00 | 0.00 | 0.00 | 16 | 1023.2 |
| 20260508174630 | 73 | 97 | 2.0 | 5.0 | 0.00 | 0.00 | 0.00 | 17 | 1023.1 |
| 20260508174133 | 74 | 46 | 1.0 | 4.0 | 0.00 | 0.00 | 0.00 | 16 | 1023.1 |
| 20260508173631 | 73 | 88 | 1.0 | 5.0 | 0.00 | 0.00 | 0.00 | 15 | 1023.2 |
| 20260508173129 | 74 | 40 | 2.0 | 5.0 | 0.00 | 0.00 | 0.00 | 16 | 1023.2 |
| 20260508172627 | 74 | 45 | 1.0 | 3.0 | 0.00 | 0.00 | 0.00 | 15 | 1023.1 |
| 20260508172126 | 73 | 103 | 1.0 | 4.0 | 0.00 | 0.00 | 0.00 | 17 | 1023.1 |
| 20260508171643 | 74 | 41 | 2.0 | 4.0 | 0.00 | 0.00 | 0.00 | 17 | 1023.1 |
| 20260508171120 | 75 | 200 | 0.0 | 2.0 | 0.00 | 0.00 | 0.00 | 19 | 1023.1 |
| 20260508170638 | 74 | 25 | 0.0 | 1.0 | 0.00 | 0.00 | 0.00 | 18 | 1023.1 |
| 20260508170156 | 73 | 295 | 0.0 | 1.0 | 0.00 | 0.00 | 0.00 | 19 | 1023.1 |
| 20260508165634 | 73 | 99 | 0.0 | 2.0 | 0.00 | 0.00 | 0.00 | 20 | 1023.1 |
| 20260508165131 | 72 | 51 | 1.0 | 4.0 | 0.00 | 0.00 | 0.00 | 19 | 1023.1 |
| 20260508164629 | 72 | 357 | 1.0 | 3.0 | 0.00 | 0.00 | 0.00 | 19 | 1023.1 |
| 20260508164126 | 71 | 37 | 1.0 | 3.0 | 0.00 | 0.00 | 0.00 | 20 | 1023.2 |
| 20260508163625 | 71 | 20 | 1.0 | 3.0 | 0.00 | 0.00 | 0.00 | 19 | 1023.2 |
| 20260508163122 | 71 | 60 | 1.0 | 2.0 | 0.00 | 0.00 | 0.00 | 20 | 1023.2 |
| 20260508162620 | 71 | 307 | 0.0 | 3.0 | 0.00 | 0.00 | 0.00 | 20 | 1023.2 |
| 20260508162122 | 71 | 56 | 1.0 | 3.0 | 0.00 | 0.00 | 0.00 | 20 | 1023.2 |
| 20260508161620 | 71 | 51 | 0.0 | 2.0 | 0.00 | 0.00 | 0.00 | 21 | 1023.3 |
| 20260508161138 | 71 | 27 | 0.0 | 2.0 | 0.00 | 0.00 | 0.00 | 22 | 1023.2 |
| 20260508160636 | 70 | 321 | 0.0 | 1.0 | 0.00 | 0.00 | 0.00 | 22 | 1023.2 |
| 20260508160134 | 69 | 336 | 0.0 | 2.0 | 0.00 | 0.00 | 0.00 | 21 | 1023.1 |
| 20260508155633 | 69 | 23 | 0.0 | 2.0 | 0.00 | 0.00 | 0.00 | 23 | 1023.2 |
| 20260508155131 | 68 | 43 | 1.0 | 2.0 | 0.00 | 0.00 | 0.00 | 24 | 1023.2 |
| 20260508154629 | 68 | 39 | 1.0 | 2.0 | 0.00 | 0.00 | 0.00 | 24 | 1023.1 |
| 20260508154148 | 68 | 6 | 1.0 | 2.0 | 0.00 | 0.00 | 0.00 | 24 | 1023.1 |
| 20260508153624 | 68 | 77 | 0.0 | 1.0 | 0.00 | 0.00 | 0.00 | 23 | 1023.1 |
| 20260508153122 | 67 | 34 | 0.0 | 1.0 | 0.00 | 0.00 | 0.00 | 23 | 1023.1 |
| 20260508152620 | 67 | 41 | 0.0 | 1.0 | 0.00 | 0.00 | 0.00 | 24 | 1023.1 |
| 20260508152138 | 66 | 30 | 0.0 | 2.0 | 0.00 | 0.00 | 0.00 | 24 | 1023.1 |
| 20260508151636 | 66 | 16 | 0.0 | 2.0 | 0.00 | 0.00 | 0.00 | 24 | 1023.1 |
| 20260508151154 | 65 | 344 | 0.0 | 1.0 | 0.00 | 0.00 | 0.00 | 24 | 1023.1 |
| 20260508150631 | 65 | 30 | 0.0 | 1.0 | 0.00 | 0.00 | 0.00 | 25 | 1023.1 |
| 20260508150129 | 65 | 8 | 0.0 | 1.0 | 0.00 | 0.00 | 0.00 | 25 | 1023.1 |
| 20260508145632 | 64 | 257 | 0.0 | 0.0 | 0.00 | 0.00 | 0.00 | 25 | 1023.1 |
| 20260508145149 | 64 | 255 | 0.0 | 1.0 | 0.00 | 0.00 | 0.00 | 25 | 1023.1 |
| 20260508144626 | 62 | 255 | 0.0 | 1.0 | 0.00 | 0.00 | 0.00 | 26 | 1023.1 |
| 20260508144125 | 61 | 254 | 0.0 | 0.0 | 0.00 | 0.00 | 0.00 | 26 | 1023.1 |
| 20260508143623 | 60 | 254 | 0.0 | 1.0 | 0.00 | 0.00 | 0.00 | 28 | 1023.1 |
| 20260508143121 | 59 | 254 | 0.0 | 1.0 | 0.00 | 0.00 | 0.00 | 27 | 1023.1 |
| 20260508142639 | 59 | 254 | 0.0 | 0.0 | 0.00 | 0.00 | 0.00 | 27 | 1023.0 |
| 20260508142137 | 58 | 254 | 0.0 | 0.0 | 0.00 | 0.00 | 0.00 | 29 | 1023.0 |
| 20260508141634 | 56 | 254 | 0.0 | 0.0 | 0.00 | 0.00 | 0.00 | 28 | 1022.9 |
| 20260508141132 | 55 | 254 | 0.0 | 0.0 | 0.00 | 0.00 | 0.00 | 29 | 1022.9 |
| 20260508140630 | 55 | 253 | 0.0 | 1.0 | 0.00 | 0.00 | 0.00 | 30 | 1022.9 |
| 20260508140130 | 54 | 253 | 0.0 | 1.0 | 0.00 | 0.00 | 0.00 | 32 | 1022.8 |
| 20260508135628 | 53 | 253 | 0.0 | 0.0 | 0.00 | 0.00 | 0.00 | 32 | 1022.8 |
| 20260508135126 | 52 | 254 | 0.0 | 0.0 | 0.00 | 0.00 | 0.00 | 31 | 1022.8 |
| 20260508134623 | 52 | 254 | 0.0 | 0.0 | 0.00 | 0.00 | 0.00 | 32 | 1022.7 |
| 20260508134125 | 51 | 254 | 0.0 | 0.0 | 0.00 | 0.00 | 0.00 | 32 | 1022.7 |
| 20260508133623 | 51 | 254 | 0.0 | 0.0 | 0.00 | 0.00 | 0.00 | 31 | 1022.7 |
| 20260508133122 | 51 | 254 | 0.0 | 1.0 | 0.00 | 0.00 | 0.00 | 31 | 1022.6 |
| 20260508132640 | 51 | 253 | 0.0 | 1.0 | 0.00 | 0.00 | 0.00 | 31 | 1022.5 |
| 20260508132138 | 50 | 253 | 0.0 | 1.0 | 0.00 | 0.00 | 0.00 | 31 | 1022.5 |
| 20260508131635 | 50 | 254 | 0.0 | 1.0 | 0.00 | 0.00 | 0.00 | 31 | 1022.5 |
| 20260508131133 | 49 | 254 | 0.0 | 0.0 | 0.00 | 0.00 | 0.00 | 32 | 1022.4 |
| 20260508130631 | 50 | 254 | 0.0 | 0.0 | 0.00 | 0.00 | 0.00 | 32 | 1022.4 |
| 20260508130129 | 50 | 253 | 0.0 | 1.0 | 0.00 | 0.00 | 0.00 | 32 | 1022.4 |
| 20260508125628 | 49 | 254 | 0.0 | 1.0 | 0.00 | 0.00 | 0.00 | 32 | 1022.4 |
| 20260508125146 | 49 | 254 | 0.0 | 1.0 | 0.00 | 0.00 | 0.00 | 32 | 1022.3 |
| 20260508124623 | 48 | 254 | 0.0 | 1.0 | 0.00 | 0.00 | 0.00 | 33 | 1022.3 |
| 20260508124121 | 48 | 254 | 0.0 | 1.0 | 0.00 | 0.00 | 0.00 | 34 | 1022.3 |
| 20260508123639 | 48 | 254 | 0.0 | 1.0 | 0.00 | 0.00 | 0.00 | 34 | 1022.1 |
| 20260508123137 | 48 | 253 | 0.0 | 0.0 | 0.00 | 0.00 | 0.00 | 34 | 1022.1 |
| 20260508122635 | 49 | 254 | 0.0 | 1.0 | 0.00 | 0.00 | 0.00 | 33 | 1022.0 |
| 20260508122137 | 50 | 254 | 0.0 | 1.0 | 0.00 | 0.00 | 0.00 | 32 | 1022.0 |
| 20260508121634 | 50 | 254 | 0.0 | 1.0 | 0.00 | 0.00 | 0.00 | 32 | 1022.0 |
| 20260508121132 | 50 | 254 | 0.0 | 1.0 | 0.00 | 0.00 | 0.00 | 32 | 1022.0 |
| 20260508120629 | 50 | 253 | 0.0 | 1.0 | 0.00 | 0.00 | 0.00 | 32 | 1022.0 |
| 20260508120148 | 50 | 254 | 0.0 | 1.0 | 0.00 | 0.00 | 0.00 | 32 | 1022.0 |
| 20260508115625 | 50 | 254 | 0.0 | 1.0 | 0.00 | 0.00 | 0.00 | 32 | 1022.0 |
| 20260508115123 | 50 | 254 | 0.0 | 1.0 | 0.00 | 0.00 | 0.00 | 32 | 1022.1 |
| 20260508114622 | 50 | 254 | 0.0 | 1.0 | 0.00 | 0.00 | 0.00 | 32 | 1022.0 |
| 20260508114141 | 50 | 254 | 0.0 | 1.0 | 0.00 | 0.00 | 0.00 | 31 | 1022.0 |
| 20260508113639 | 51 | 254 | 0.0 | 1.0 | 0.00 | 0.00 | 0.00 | 31 | 1022.0 |
| 20260508113157 | 51 | 254 | 0.0 | 1.0 | 0.00 | 0.00 | 0.00 | 31 | 1022.0 |
| 20260508112633 | 51 | 254 | 0.0 | 1.0 | 0.00 | 0.00 | 0.00 | 31 | 1022.1 |
| 20260508112132 | 51 | 254 | 0.0 | 1.0 | 0.00 | 0.00 | 0.00 | 31 | 1022.1 |
| 20260508111629 | 51 | 254 | 1.0 | 1.0 | 0.00 | 0.00 | 0.00 | 31 | 1022.1 |
| 20260508111126 | 51 | 254 | 1.0 | 1.0 | 0.00 | 0.00 | 0.00 | 31 | 1022.1 |
| 20260508110644 | 51 | 254 | 0.0 | 1.0 | 0.00 | 0.00 | 0.00 | 31 | 1022.1 |
| 20260508110141 | 51 | 254 | 0.0 | 1.0 | 0.00 | 0.00 | 0.00 | 31 | 1022.1 |
| 20260508105700 | 51 | 254 | 0.0 | 1.0 | 0.00 | 0.00 | 0.00 | 31 | 1022.2 |
| 20260508105137 | 51 | 254 | 0.0 | 1.0 | 0.00 | 0.00 | 0.00 | 31 | 1022.2 |
| 20260508104639 | 51 | 254 | 0.0 | 1.0 | 0.00 | 0.00 | 0.00 | 31 | 1022.3 |
| 20260508104137 | 51 | 254 | 0.0 | 1.0 | 0.00 | 0.00 | 0.00 | 31 | 1022.3 |
| 20260508103635 | 51 | 254 | 0.0 | 2.0 | 0.00 | 0.00 | 0.00 | 31 | 1022.3 |
| 20260508103133 | 51 | 255 | 1.0 | 2.0 | 0.00 | 0.00 | 0.00 | 31 | 1022.3 |
| 20260508102651 | 51 | 253 | 1.0 | 2.0 | 0.00 | 0.00 | 0.00 | 31 | 1022.3 |
| 20260508102127 | 51 | 252 | 1.0 | 2.0 | 0.00 | 0.00 | 0.00 | 32 | 1022.4 |
| 20260508101625 | 50 | 253 | 1.0 | 2.0 | 0.00 | 0.00 | 0.00 | 32 | 1022.5 |
| 20260508101122 | 50 | 253 | 1.0 | 2.0 | 0.00 | 0.00 | 0.00 | 33 | 1022.4 |
| 20260508100640 | 50 | 252 | 1.0 | 1.0 | 0.00 | 0.00 | 0.00 | 34 | 1022.5 |
| 20260508100138 | 50 | 253 | 0.0 | 1.0 | 0.00 | 0.00 | 0.00 | 33 | 1022.6 |
| 20260508095657 | 50 | 252 | 0.0 | 1.0 | 0.00 | 0.00 | 0.00 | 34 | 1022.6 |
| 20260508095133 | 50 | 252 | 0.0 | 1.0 | 0.00 | 0.00 | 0.00 | 34 | 1022.5 |
| 20260508094631 | 51 | 253 | 0.0 | 1.0 | 0.00 | 0.00 | 0.00 | 34 | 1022.5 |
| 20260508094129 | 51 | 253 | 0.0 | 1.0 | 0.00 | 0.00 | 0.00 | 34 | 1022.5 |
| 20260508093627 | 51 | 253 | 0.0 | 1.0 | 0.00 | 0.00 | 0.00 | 35 | 1022.6 |
| 20260508093125 | 51 | 252 | 0.0 | 1.0 | 0.00 | 0.00 | 0.00 | 35 | 1022.6 |
| 20260508092627 | 51 | 253 | 0.0 | 1.0 | 0.00 | 0.00 | 0.00 | 35 | 1022.7 |
| 20260508092125 | 51 | 253 | 0.0 | 1.0 | 0.00 | 0.00 | 0.00 | 35 | 1022.7 |
| 20260508091623 | 51 | 253 | 0.0 | 1.0 | 0.00 | 0.00 | 0.00 | 35 | 1022.7 |
| 20260508091141 | 50 | 253 | 1.0 | 1.0 | 0.00 | 0.00 | 0.00 | 36 | 1022.8 |
| 20260508090639 | 51 | 253 | 0.0 | 1.0 | 0.00 | 0.00 | 0.00 | 35 | 1022.8 |
| 20260508090137 | 51 | 252 | 0.0 | 1.0 | 0.00 | 0.00 | 0.00 | 35 | 1022.8 |
| 20260508085657 | 51 | 253 | 0.0 | 1.0 | 0.00 | 0.00 | 0.00 | 35 | 1022.8 |
| 20260508085133 | 51 | 253 | 0.0 | 1.0 | 0.00 | 0.00 | 0.00 | 35 | 1022.8 |
| 20260508084631 | 51 | 253 | 0.0 | 1.0 | 0.00 | 0.00 | 0.00 | 35 | 1022.9 |
| 20260508084129 | 51 | 253 | 0.0 | 1.0 | 0.00 | 0.00 | 0.00 | 36 | 1022.9 |
| 20260508083627 | 51 | 253 | 0.0 | 1.0 | 0.00 | 0.00 | 0.00 | 36 | 1022.9 |
| 20260508083125 | 52 | 253 | 0.0 | 1.0 | 0.00 | 0.00 | 0.00 | 36 | 1023.0 |
| 20260508082623 | 52 | 253 | 0.0 | 1.0 | 0.00 | 0.00 | 0.00 | 35 | 1023.0 |
| 20260508082141 | 52 | 253 | 1.0 | 1.0 | 0.00 | 0.00 | 0.00 | 36 | 1023.0 |
| 20260508081638 | 52 | 253 | 1.0 | 1.0 | 0.00 | 0.00 | 0.00 | 36 | 1023.1 |
| 20260508081134 | 52 | 253 | 1.0 | 1.0 | 0.00 | 0.00 | 0.00 | 36 | 1023.1 |
| 20260508080636 | 52 | 254 | 0.0 | 1.0 | 0.00 | 0.00 | 0.00 | 35 | 1023.1 |
| 20260508080134 | 52 | 254 | 0.0 | 1.0 | 0.00 | 0.00 | 0.00 | 35 | 1023.2 |
| 20260508075634 | 53 | 253 | 0.0 | 1.0 | 0.00 | 0.00 | 0.00 | 35 | 1023.2 |
| 20260508075133 | 53 | 254 | 1.0 | 1.0 | 0.00 | 0.00 | 0.00 | 35 | 1023.2 |
| 20260508074631 | 53 | 252 | 0.0 | 1.0 | 0.00 | 0.00 | 0.00 | 35 | 1023.2 |
| 20260508074130 | 53 | 255 | 1.0 | 1.0 | 0.00 | 0.00 | 0.00 | 35 | 1023.3 |
| 20260508073628 | 53 | 251 | 0.0 | 1.0 | 0.00 | 0.00 | 0.00 | 36 | 1023.3 |
| 20260508073126 | 53 | 252 | 0.0 | 1.0 | 0.00 | 0.00 | 0.00 | 36 | 1023.3 |
| 20260508072623 | 53 | 248 | 0.0 | 1.0 | 0.00 | 0.00 | 0.00 | 37 | 1023.3 |
| 20260508072141 | 53 | 252 | 1.0 | 1.0 | 0.00 | 0.00 | 0.00 | 37 | 1023.3 |
| 20260508071640 | 52 | 250 | 0.0 | 1.0 | 0.00 | 0.00 | 0.00 | 37 | 1023.4 |
| 20260508071158 | 52 | 250 | 0.0 | 1.0 | 0.00 | 0.00 | 0.00 | 37 | 1023.4 |
| 20260508070634 | 52 | 250 | 1.0 | 2.0 | 0.00 | 0.00 | 0.00 | 37 | 1023.4 |
| 20260508070132 | 52 | 248 | 1.0 | 2.0 | 0.00 | 0.00 | 0.00 | 37 | 1023.4 |
| 20260508065631 | 52 | 253 | 1.0 | 2.0 | 0.00 | 0.00 | 0.00 | 38 | 1023.4 |
| 20260508065148 | 52 | 252 | 0.0 | 1.0 | 0.00 | 0.00 | 0.00 | 38 | 1023.3 |
| 20260508064705 | 52 | 252 | 1.0 | 1.0 | 0.00 | 0.00 | 0.00 | 38 | 1023.4 |
| 20260508064124 | 52 | 252 | 0.0 | 1.0 | 0.00 | 0.00 | 0.00 | 39 | 1023.4 |
| 20260508063657 | 53 | 253 | 0.0 | 2.0 | 0.00 | 0.00 | 0.00 | 39 | 1023.4 |
| 20260508063137 | 53 | 256 | 1.0 | 2.0 | 0.00 | 0.00 | 0.00 | 39 | 1023.5 |
| 20260508062635 | 53 | 252 | 1.0 | 1.0 | 0.00 | 0.00 | 0.00 | 40 | 1023.5 |
| 20260508062131 | 53 | 252 | 0.0 | 2.0 | 0.00 | 0.00 | 0.00 | 40 | 1023.5 |
| 20260508061649 | 53 | 251 | 0.0 | 2.0 | 0.00 | 0.00 | 0.00 | 41 | 1023.4 |
| 20260508061127 | 53 | 256 | 1.0 | 2.0 | 0.00 | 0.00 | 0.00 | 41 | 1023.4 |
| 20260508060625 | 53 | 254 | 1.0 | 2.0 | 0.00 | 0.00 | 0.00 | 42 | 1023.4 |
| 20260508060143 | 53 | 250 | 1.0 | 2.0 | 0.00 | 0.00 | 0.00 | 43 | 1023.5 |
| 20260508055642 | 53 | 249 | 1.0 | 2.0 | 0.00 | 0.00 | 0.00 | 43 | 1023.4 |
| 20260508055139 | 53 | 252 | 0.0 | 2.0 | 0.00 | 0.00 | 0.00 | 43 | 1023.5 |
| 20260508054657 | 53 | 252 | 0.0 | 2.0 | 0.00 | 0.00 | 0.00 | 43 | 1023.5 |
| 20260508054136 | 53 | 253 | 0.0 | 2.0 | 0.00 | 0.00 | 0.00 | 43 | 1023.6 |
| 20260508053633 | 53 | 253 | 1.0 | 1.0 | 0.00 | 0.00 | 0.00 | 43 | 1023.5 |
| 20260508053131 | 54 | 253 | 1.0 | 1.0 | 0.00 | 0.00 | 0.00 | 43 | 1023.5 |
| 20260508052649 | 54 | 253 | 1.0 | 1.0 | 0.00 | 0.00 | 0.00 | 43 | 1023.6 |
| 20260508052126 | 54 | 254 | 1.0 | 2.0 | 0.00 | 0.00 | 0.00 | 42 | 1023.6 |
| 20260508051704 | 54 | 254 | 0.0 | 2.0 | 0.00 | 0.00 | 0.00 | 42 | 1023.6 |
| 20260508051140 | 54 | 251 | 1.0 | 2.0 | 0.00 | 0.00 | 0.00 | 42 | 1023.6 |
| 20260508050638 | 54 | 255 | 1.0 | 2.0 | 0.00 | 0.00 | 0.00 | 43 | 1023.6 |
| 20260508050135 | 54 | 253 | 1.0 | 2.0 | 0.00 | 0.00 | 0.00 | 43 | 1023.6 |
| 20260508045638 | 54 | 255 | 1.0 | 1.0 | 0.00 | 0.00 | 0.00 | 43 | 1023.6 |
| 20260508045135 | 54 | 257 | 1.0 | 2.0 | 0.00 | 0.00 | 0.00 | 43 | 1023.5 |
| 20260508044633 | 55 | 252 | 1.0 | 2.0 | 0.00 | 0.00 | 0.00 | 43 | 1023.5 |
| 20260508044132 | 55 | 252 | 1.0 | 2.0 | 0.00 | 0.00 | 0.00 | 42 | 1023.5 |
| 20260508043630 | 55 | 245 | 1.0 | 2.0 | 0.00 | 0.00 | 0.00 | 42 | 1023.4 |
| 20260508043205 | 55 | 253 | 1.0 | 2.0 | 0.00 | 0.00 | 0.00 | 42 | 1023.4 |
| 20260508042642 | 55 | 254 | 1.0 | 2.0 | 0.00 | 0.00 | 0.00 | 42 | 1023.4 |
| 20260508042140 | 55 | 259 | 1.0 | 2.0 | 0.00 | 0.00 | 0.00 | 42 | 1023.3 |
| 20260508041637 | 55 | 252 | 0.0 | 2.0 | 0.00 | 0.00 | 0.00 | 42 | 1023.2 |
| 20260508041135 | 55 | 238 | 1.0 | 3.0 | 0.00 | 0.00 | 0.00 | 42 | 1023.1 |
| 20260508040633 | 55 | 252 | 0.0 | 3.0 | 0.00 | 0.00 | 0.00 | 41 | 1023.1 |
| 20260508040131 | 55 | 250 | 1.0 | 3.0 | 0.00 | 0.00 | 0.00 | 41 | 1023.1 |
| 20260508035631 | 55 | 262 | 0.0 | 3.0 | 0.00 | 0.00 | 0.00 | 41 | 1023.1 |
| 20260508035129 | 55 | 253 | 1.0 | 2.0 | 0.00 | 0.00 | 0.00 | 41 | 1023.1 |
| 20260508034647 | 55 | 255 | 0.0 | 2.0 | 0.00 | 0.00 | 0.00 | 40 | 1023.0 |
| 20260508034145 | 55 | 256 | 1.0 | 2.0 | 0.00 | 0.00 | 0.00 | 39 | 1022.9 |
| 20260508033626 | 55 | 256 | 0.0 | 2.0 | 0.00 | 0.00 | 0.00 | 39 | 1022.9 |
| 20260508033145 | 55 | 257 | 0.0 | 2.0 | 0.00 | 0.00 | 0.00 | 38 | 1022.9 |
| 20260508032642 | 55 | 252 | 0.0 | 1.0 | 0.00 | 0.00 | 0.00 | 37 | 1022.8 |
| 20260508032140 | 54 | 250 | 0.0 | 3.0 | 0.00 | 0.00 | 0.00 | 37 | 1022.7 |
| 20260508031637 | 54 | 248 | 1.0 | 3.0 | 0.00 | 0.00 | 0.00 | 37 | 1022.7 |
| 20260508031134 | 54 | 242 | 0.0 | 2.0 | 0.00 | 0.00 | 0.00 | 37 | 1022.6 |
| 20260508030632 | 54 | 252 | 0.0 | 1.0 | 0.00 | 0.00 | 0.00 | 36 | 1022.6 |
| 20260508030129 | 55 | 252 | 0.0 | 1.0 | 0.00 | 0.00 | 0.00 | 35 | 1022.6 |
| 20260508025630 | 55 | 280 | 0.0 | 1.0 | 0.00 | 0.00 | 0.00 | 35 | 1022.6 |
| 20260508025128 | 55 | 280 | 0.0 | 1.0 | 0.00 | 0.00 | 0.00 | 34 | 1022.6 |
| 20260508024625 | 56 | 189 | 0.0 | 2.0 | 0.00 | 0.00 | 0.00 | 31 | 1022.6 |
| 20260508024204 | 56 | 247 | 0.0 | 6.0 | 0.00 | 0.00 | 0.00 | 31 | 1022.5 |
| 20260508023641 | 56 | 245 | 1.0 | 6.0 | 0.00 | 0.00 | 0.00 | 30 | 1022.4 |
| 20260508023159 | 57 | 262 | 0.0 | 4.0 | 0.00 | 0.00 | 0.00 | 30 | 1022.4 |
| 20260508022636 | 57 | 261 | 1.0 | 4.0 | 0.00 | 0.00 | 0.00 | 29 | 1022.4 |
| 20260508022134 | 57 | 259 | 1.0 | 3.0 | 0.00 | 0.00 | 0.00 | 29 | 1022.4 |
| 20260508021632 | 57 | 255 | 1.0 | 3.0 | 0.00 | 0.00 | 0.00 | 29 | 1022.2 |
| 20260508021149 | 58 | 256 | 1.0 | 3.0 | 0.00 | 0.00 | 0.00 | 29 | 1022.2 |
| 20260508020630 | 58 | 247 | 1.0 | 3.0 | 0.00 | 0.00 | 0.00 | 29 | 1022.3 |
| 20260508020127 | 58 | 264 | 1.0 | 3.0 | 0.00 | 0.00 | 0.00 | 30 | 1022.3 |
| 20260508015706 | 59 | 245 | 1.0 | 3.0 | 0.00 | 0.00 | 0.00 | 31 | 1022.3 |
| 20260508015144 | 59 | 264 | 1.0 | 3.0 | 0.00 | 0.00 | 0.00 | 31 | 1022.2 |
| 20260508014641 | 59 | 258 | 1.0 | 3.0 | 0.00 | 0.00 | 0.00 | 31 | 1022.3 |
| 20260508014140 | 59 | 250 | 0.0 | 4.0 | 0.00 | 0.00 | 0.00 | 31 | 1022.2 |
| 20260508013637 | 59 | 248 | 1.0 | 7.0 | 0.00 | 0.00 | 0.00 | 31 | 1022.2 |
| 20260508013155 | 60 | 221 | 1.0 | 7.0 | 0.00 | 0.00 | 0.00 | 30 | 1022.2 |
| 20260508012631 | 60 | 245 | 1.0 | 7.0 | 0.00 | 0.00 | 0.00 | 30 | 1022.2 |
| 20260508012130 | 60 | 245 | 2.0 | 7.0 | 0.00 | 0.00 | 0.00 | 30 | 1022.1 |
| 20260508011627 | 60 | 243 | 1.0 | 3.0 | 0.00 | 0.00 | 0.00 | 30 | 1022.1 |
| 20260508011126 | 61 | 254 | 1.0 | 3.0 | 0.00 | 0.00 | 0.00 | 32 | 1022.2 |
| 20260508010644 | 61 | 173 | 1.0 | 3.0 | 0.00 | 0.00 | 0.00 | 32 | 1022.2 |
| 20260508010141 | 61 | 231 | 2.0 | 5.0 | 0.00 | 0.00 | 0.00 | 29 | 1022.1 |
| 20260508005640 | 61 | 235 | 1.0 | 5.0 | 0.00 | 0.00 | 0.00 | 28 | 1022.1 |
| 20260508005158 | 62 | 247 | 1.0 | 4.0 | 0.00 | 0.00 | 0.00 | 29 | 1022.2 |
| 20260508004635 | 62 | 252 | 1.0 | 3.0 | 0.00 | 0.00 | 0.00 | 29 | 1022.2 |
| 20260508004133 | 63 | 241 | 1.0 | 3.0 | 0.00 | 0.00 | 0.00 | 28 | 1022.2 |
| 20260508003652 | 63 | 245 | 0.0 | 3.0 | 0.00 | 0.00 | 0.00 | 28 | 1022.1 |
| 20260508003133 | 63 | 247 | 0.0 | 5.0 | 0.00 | 0.00 | 0.00 | 28 | 1022.2 |
| 20260508002630 | 63 | 220 | 0.0 | 5.0 | 0.00 | 0.00 | 0.00 | 29 | 1022.1 |